Tracking 29892 objects as of 21-Nov-2024
HD Live streaming from Space Station
objects crossing your sky now

STARLINK-2332

Track STARLINK-2332 now!
10-day predictions
STARLINK-2332 is classified as:


NORAD ID: 47876
Int'l Code: 2021-021S
Perigee: 467.0 km
Apogee: 468.4 km
Inclination: 53.0 °
Period: 93.8 minutes
Semi major axis: 6838 km
RCS: Unknown
Launch date: March 14, 2021
Source: United States (US)
Launch site: AIR FORCE EASTERN TEST RANGE (AFETR)
Your satellite tracking list
Your tracking list is empty




NASA's NSSDC Master Catalog

Two Line Element Set (TLE):
1 47876U 21021S   24326.25001157  .00484866  00000-0  13152-1 0  9995
2 47876  53.0449 231.4502 0001002 105.2038  42.7578 15.35120552204433
Source of the keplerian elements: AFSPC